• In Uzbekistan
  • List of Countries
  • For 7 days
  • Water Temperature
  • Satellite Maps
  • Weather Map
  • Weather Widgets
  • user-avatar
    Login

    Hourly Weather Yeghegnadzor

    Today, 23 May, Thursday

    Time Temperature Precipitation Wind Pressure Humidity
    00:00 +12°C° 0 mm 0 mps 653 mmHg 81%
    01:00 +12°C° 0 mm 0 mps 653 mmHg 82%
    02:00 +12°C° 0 mm 1 mps 653 mmHg 83%
    03:00 +12°C° 0 mm 1 mps 653 mmHg 84%
    04:00 +13°C° 0 mm 1 mps 653 mmHg 80%
    05:00 +14°C° 0 mm 1 mps 653 mmHg 76%
    06:00 +15°C° 0 mm 1 mps 653 mmHg 72%
    07:00 +17°C° 0 mm 2 mps 653 mmHg 65%
    08:00 +18°C° 0 mm 2 mps 653 mmHg 58%
    09:00 +20°C° 0 mm 2 mps 654 mmHg 51%
    10:00 +21°C° 0 mm 3 mps 653 mmHg 49%
    11:00 +22°C° 0 mm 3 mps 653 mmHg 47%
    12:00 +23°C° 0 mm 4 mps 653 mmHg 44%
    13:00 +23°C° 0.2 mm 4 mps 653 mmHg 44%
    14:00 +23°C° 0.2 mm 4 mps 653 mmHg 45%
    15:00 +23°C° 0.2 mm 4 mps 653 mmHg 45%
    16:00 +23°C° 0.2 mm 4 mps 652 mmHg 47%
    17:00 +22°C° 0.2 mm 4 mps 652 mmHg 49%
    18:00 +21°C° 0.2 mm 4 mps 652 mmHg 51%
    19:00 +20°C° 0.1 mm 3 mps 652 mmHg 58%
    20:00 +18°C° 0.1 mm 2 mps 652 mmHg 64%
    21:00 +16°C° 0.1 mm 1 mps 652 mmHg 71%
    22:00 +16°C° 0.3 mm 1 mps 652 mmHg 73%
    23:00 +15°C° 0.3 mm 1 mps 652 mmHg 74%

    Tomorrow, 24 May, Friday

    Time Temperature Precipitation Wind Pressure Humidity
    00:00 +15°C° 0.3 mm 1 mps 652 mmHg 76%
    01:00 +15°C° 0.1 mm 1 mps 652 mmHg 77%
    02:00 +14°C° 0.1 mm 1 mps 652 mmHg 78%
    03:00 +14°C° 0.1 mm 1 mps 652 mmHg 79%
    04:00 +15°C° 0 mm 1 mps 652 mmHg 76%
    05:00 +15°C° 0 mm 1 mps 653 mmHg 72%
    06:00 +16°C° 0 mm 2 mps 653 mmHg 68%
    07:00 +18°C° 0 mm 2 mps 653 mmHg 62%
    08:00 +19°C° 0 mm 2 mps 654 mmHg 56%
    09:00 +21°C° 0 mm 2 mps 654 mmHg 51%
    10:00 +22°C° 0 mm 3 mps 654 mmHg 47%
    11:00 +25°C° 0 mm 3 mps 654 mmHg 43%
    12:00 +26°C° 0 mm 4 mps 654 mmHg 39%
    13:00 +26°C° 0.1 mm 4 mps 654 mmHg 37%
    14:00 +27°C° 0.1 mm 5 mps 654 mmHg 35%
    15:00 +28°C° 0.1 mm 6 mps 654 mmHg 33%
    16:00 +27°C° 0.2 mm 5 mps 654 mmHg 37%
    17:00 +26°C° 0.2 mm 5 mps 654 mmHg 41%
    18:00 +25°C° 0.2 mm 4 mps 654 mmHg 44%
    19:00 +22°C° 0.3 mm 4 mps 654 mmHg 50%
    20:00 +20°C° 0.3 mm 3 mps 654 mmHg 55%
    21:00 +18°C° 0.3 mm 3 mps 654 mmHg 61%
    22:00 +18°C° 0 mm 2 mps 654 mmHg 59%
    23:00 +17°C° 0 mm 2 mps 654 mmHg 58%

    Day after tomorrow, 25 May, Saturday

    Time Temperature Precipitation Wind Pressure Humidity
    00:00 +17°C° 0 mm 2 mps 654 mmHg 56%
    01:00 +17°C° 0 mm 2 mps 654 mmHg 55%
    02:00 +17°C° 0 mm 2 mps 654 mmHg 55%
    03:00 +17°C° 0 mm 2 mps 654 mmHg 54%
    04:00 +17°C° 0 mm 2 mps 654 mmHg 54%
    05:00 +18°C° 0 mm 2 mps 655 mmHg 53%
    06:00 +19°C° 0 mm 2 mps 655 mmHg 52%
    07:00 +21°C° 0 mm 3 mps 655 mmHg 46%
    08:00 +24°C° 0 mm 3 mps 656 mmHg 40%
    09:00 +26°C° 0 mm 4 mps 656 mmHg 34%
    10:00 +27°C° 0 mm 4 mps 656 mmHg 31%
    11:00 +29°C° 0 mm 4 mps 656 mmHg 29%
    12:00 +30°C° 0 mm 5 mps 656 mmHg 26%
    13:00 +30°C° 0 mm 5 mps 656 mmHg 25%
    14:00 +30°C° 0 mm 6 mps 655 mmHg 24%
    15:00 +32°C° 0 mm 7 mps 655 mmHg 24%
    16:00 +29°C° 0.1 mm 5 mps 655 mmHg 28%
    17:00 +28°C° 0.1 mm 4 mps 654 mmHg 32%
    18:00 +27°C° 0.1 mm 3 mps 654 mmHg 36%
    19:00 +25°C° 0.2 mm 3 mps 653 mmHg 38%
    20:00 +22°C° 0.2 mm 3 mps 653 mmHg 41%
    21:00 +20°C° 0.2 mm 3 mps 653 mmHg 44%
    22:00 +19°C° 0 mm 3 mps 653 mmHg 44%
    23:00 +19°C° 0 mm 3 mps 653 mmHg 45%

    26 May, Sunday

    Time Temperature Precipitation Wind Pressure Humidity
    00:00 +18°C° 0 mm 3 mps 653 mmHg 45%
    01:00 +18°C° 0 mm 3 mps 652 mmHg 47%
    02:00 +17°C° 0 mm 3 mps 652 mmHg 48%
    03:00 +17°C° 0 mm 3 mps 652 mmHg 49%
    04:00 +18°C° 0 mm 3 mps 652 mmHg 48%
    05:00 +19°C° 0 mm 3 mps 653 mmHg 47%
    06:00 +19°C° 0 mm 3 mps 653 mmHg 45%
    07:00 +21°C° 0 mm 3 mps 653 mmHg 41%
    08:00 +23°C° 0 mm 4 mps 654 mmHg 36%
    09:00 +27°C° 0 mm 4 mps 654 mmHg 31%
    10:00 +28°C° 0 mm 5 mps 654 mmHg 30%
    11:00 +29°C° 0 mm 5 mps 654 mmHg 28%
    12:00 +30°C° 0 mm 6 mps 654 mmHg 27%
    13:00 +30°C° 0 mm 6 mps 654 mmHg 26%
    14:00 +30°C° 0 mm 6 mps 653 mmHg 25%
    15:00 +30°C° 0 mm 6 mps 653 mmHg 25%
    16:00 +29°C° 0 mm 5 mps 653 mmHg 26%
    17:00 +28°C° 0 mm 5 mps 653 mmHg 28%
    18:00 +27°C° 0 mm 4 mps 653 mmHg 29%
    19:00 +24°C° 0 mm 3 mps 653 mmHg 31%
    20:00 +21°C° 0 mm 2 mps 653 mmHg 33%
    21:00 +19°C° 0 mm 1 mps 653 mmHg 35%
    22:00 +18°C° 0 mm 2 mps 653 mmHg 39%
    23:00 +17°C° 0 mm 2 mps 653 mmHg 43%

    27 May, Monday

    Time Temperature Precipitation Wind Pressure Humidity
    00:00 +17°C° 0 mm 3 mps 653 mmHg 46%
    01:00 +16°C° 0 mm 3 mps 653 mmHg 50%
    02:00 +16°C° 0 mm 3 mps 653 mmHg 53%
    03:00 +14°C° 0 mm 3 mps 653 mmHg 57%
    04:00 +16°C° 0 mm 2 mps 654 mmHg 55%
    05:00 +17°C° 0 mm 2 mps 654 mmHg 53%
    06:00 +19°C° 0 mm 1 mps 655 mmHg 51%
    07:00 +20°C° 0 mm 2 mps 656 mmHg 44%
    08:00 +23°C° 0 mm 2 mps 656 mmHg 36%
    09:00 +24°C° 0 mm 2 mps 657 mmHg 29%
    10:00 +25°C° 0 mm 2 mps 657 mmHg 28%
    11:00 +26°C° 0 mm 3 mps 657 mmHg 26%
    12:00 +27°C° 0 mm 3 mps 657 mmHg 24%
    13:00 +28°C° 0 mm 3 mps 657 mmHg 23%
    14:00 +28°C° 0 mm 4 mps 656 mmHg 23%
    15:00 +28°C° 0 mm 4 mps 656 mmHg 22%
    16:00 +27°C° 0 mm 3 mps 656 mmHg 26%
    17:00 +27°C° 0 mm 3 mps 656 mmHg 30%
    18:00 +26°C° 0 mm 3 mps 656 mmHg 34%
    19:00 +24°C° 0.1 mm 3 mps 656 mmHg 42%
    20:00 +20°C° 0.1 mm 3 mps 656 mmHg 51%
    21:00 +18°C° 0.1 mm 3 mps 656 mmHg 59%
    22:00 +18°C° 0 mm 3 mps 656 mmHg 62%
    23:00 +17°C° 0 mm 3 mps 656 mmHg 65%

    28 May, Tuesday

    Time Temperature Precipitation Wind Pressure Humidity
    00:00 +16°C° 0 mm 3 mps 657 mmHg 68%
    01:00 +16°C° 0 mm 3 mps 657 mmHg 67%
    02:00 +16°C° 0 mm 3 mps 657 mmHg 66%
    03:00 +14°C° 0 mm 3 mps 657 mmHg 66%
    04:00 +16°C° 0 mm 3 mps 657 mmHg 63%
    05:00 +17°C° 0 mm 2 mps 658 mmHg 61%
    06:00 +18°C° 0 mm 2 mps 658 mmHg 59%
    07:00 +20°C° 0 mm 2 mps 659 mmHg 53%
    08:00 +23°C° 0 mm 2 mps 659 mmHg 46%
    09:00 +25°C° 0 mm 1 mps 660 mmHg 40%
    10:00 +26°C° 0 mm 2 mps 659 mmHg 38%
    11:00 +27°C° 0 mm 2 mps 659 mmHg 36%
    12:00 +28°C° 0 mm 2 mps 659 mmHg 34%
    13:00 +28°C° 0.2 mm 2 mps 659 mmHg 33%
    14:00 +28°C° 0.2 mm 2 mps 659 mmHg 32%
    15:00 +28°C° 0.2 mm 2 mps 659 mmHg 31%
    16:00 +28°C° 0.2 mm 2 mps 658 mmHg 34%
    17:00 +27°C° 0.2 mm 2 mps 658 mmHg 36%
    18:00 +26°C° 0.2 mm 1 mps 658 mmHg 39%
    19:00 +24°C° 0.1 mm 2 mps 658 mmHg 47%
    20:00 +21°C° 0.1 mm 2 mps 658 mmHg 55%
    21:00 +19°C° 0.1 mm 2 mps 658 mmHg 64%
    22:00 +18°C° 0 mm 2 mps 658 mmHg 66%
    23:00 +18°C° 0 mm 3 mps 658 mmHg 69%
    Show more